Content
SEND FEEDBACK

Daily
Averages
Monthly
Summary
United States of America

ASATDAS, GUAM


Home > North America > United States > Guam
Elevation: 612 feet     Latitude: 13 35N     Longitude: 144 56E

WEATHER
 
SELECT A DAY
Number of Records: 206,838;   Date Range: 1/1/95 - 4/16/14
 
SHARE

PRINT THIS DATA

[ ← Previous Day ]
WEATHER ALMANAC - OCTOBER 22, 2013
[ Next Day → ]
[ °C ]   °F
Weather ElementAverageHighLow
Temperature79.3 °F82.9 °F (9:54 am)75.2 °F (12:51 pm)
Dewpoint77.1 °F78.8 °F (1:41 am)75 °F (12:54 pm)
Humidity93 %100 % (12:51 pm)85 % (9:54 am)
Barometer29.77 in29.82 in (10:30 pm)29.72 in (2:54 am)
Wind Speed3.5 mph17.3 mph (12:03 pm)
Wind Gust23 mph (12:03 pm)
Weather ElementAverage
Visibility9.1 mi
Wind DirectionSE (133.2 °)

Weather ElementTotal
Precipitation0.69 in
Cooling Degree Days14.1 (Base 65)
Growing Degree Days29.1 (Base 50)
Averaged from 41 records on October 22, 2013
WEATHER CONDITIONS BREAKOUT
WIND DIRECTION BREAKOUT
WEATHER BY HOUR - OCTOBER 22, 2013
[ °C ]   °F
Local TimeTemperatureDewpointHumidityBarometerVisibilityWind DirectionWind SpeedGust SpeedPrecipitationEventsConditions
1:41 AM80.6 °F78.8 °F94 %29.78 in10.0 miSSE (160°)4.6 mph0.01 inMostly Cloudy
1:54 AM81.0 °F78.1 °F91 %29.75 in10.0 miSouth (190°)4.6 mph0.01 inScattered Clouds
2:54 AM80.1 °F78.1 °F94 %29.72 in10.0 miSouth (190°)3.5 mph0.00 inClear
3:54 AM80.1 °F78.1 °F94 %29.72 in10.0 miSSE (150°)3.5 mphPartly Cloudy
4:54 AM79.0 °F78.1 °F97 %29.74 in10.0 miCalmClear
5:54 AM79.0 °F78.1 °F97 %29.74 in10.0 miCalmClear
6:54 AM79.0 °F78.1 °F97 %29.76 in9.0 miSW (220°)3.5 mphPartly Cloudy
7:54 AM81.0 °F78.1 °F91 %29.77 in10.0 miSSE (160°)3.5 mphClear
8:54 AM82.0 °F78.1 °F88 %29.79 in10.0 miCalmPartly Cloudy
9:54 AM82.9 °F78.1 °F85 %29.78 in10.0 miSW (220°)4.6 mphMostly Cloudy
10:02 AM82.4 °F78.8 °F89 %29.80 in10.0 miSSW (210°)3.5 mphMostly Cloudy
10:54 AM82.0 °F78.1 °F88 %29.77 in10.0 miSW (230°)5.8 mph0.00 inMostly Cloudy
11:01 AM80.6 °F78.8 °F94 %29.80 in10.0 miSW (220°)3.5 mphOvercast
11:05 AM82.4 °F78.8 °F89 %29.80 in10.0 miCalmThunderstormThunderstorm
11:19 AM82.4 °F78.8 °F89 %29.79 in9.0 miCalmThunderstormThunderstorm
11:41 AM80.6 °F77.0 °F89 %29.78 in10.0 miENE (60°)3.5 mphThunderstormThunderstorm
11:44 AM80.6 °F77.0 °F89 %29.78 in10.0 miNNE (30°)5.8 mphMostly Cloudy
11:51 AM80.6 °F77.0 °F89 %29.78 in10.0 miNorth (350°)4.6 mphMostly Cloudy
11:54 AM80.1 °F77.0 °F90 %29.76 in10.0 miCalmScattered Clouds
12:03 PM78.8 °F75.2 °F89 %29.78 in7.0 miWSW (240°)17.3 mph23.0 mph0.00 inRainLight Rain
12:09 PM77.0 °F75.2 °F94 %29.78 in2.5 miWest (270°)13.8 mph23.0 mph0.05 inRainHeavy Rain
12:12 PM77.0 °F75.2 °F94 %29.77 in2.5 miWest (270°)12.7 mph23.0 mph0.05 inRainLight Rain
12:18 PM77.0 °F75.2 °F94 %29.77 in1.8 miWest (260°)9.2 mph0.07 inRainHeavy Rain
12:28 PM77.0 °F75.2 °F94 %29.78 in3.0 miWSW (240°)6.9 mph0.11 inRainLight Rain
12:42 PM77.0 °F75.2 °F94 %29.78 in8.0 miCalm0.12 inRainLight Rain
12:51 PM75.2 °F75.2 °F100 %29.77 in9.0 miCalm0.12 inRainLight Rain
12:54 PM75.9 °F75.0 °F97 %29.75 in10.0 miCalm0.12 inRainLight Rain
1:54 PM78.1 °F75.9 °F93 %29.74 in10.0 miSE (130°)3.5 mph0.02 inRainLight Rain
2:54 PM78.1 °F77.0 °F96 %29.73 in10.0 miCalm0.01 inMostly Cloudy
3:54 PM78.1 °F77.0 °F96 %29.73 in10.0 miSSW (200°)3.5 mphMostly Cloudy
4:54 PM79.0 °F77.0 °F94 %29.73 in10.0 miWest (270°)4.6 mphScattered Clouds
5:54 PM79.0 °F77.0 °F94 %29.74 in10.0 miWNW (300°)3.5 mphPartly Cloudy
6:54 PM78.1 °F77.0 °F96 %29.75 in10.0 miWest (270°)4.6 mphPartly Cloudy
7:54 PM79.0 °F77.0 °F94 %29.77 in10.0 miCalmPartly Cloudy
8:54 PM79.0 °F77.0 °F94 %29.78 in10.0 miWNW (300°)4.6 mphPartly Cloudy
9:54 PM79.0 °F77.0 °F94 %29.80 in10.0 miNW (320°)3.5 mphPartly Cloudy
10:30 PM78.8 °F77.0 °F94 %29.82 in10.0 miCalm0.00 inMostly Cloudy
10:50 PM78.8 °F77.0 °F94 %29.81 in10.0 miCalm0.00 inScattered Clouds
10:54 PM79.0 °F77.0 °F94 %29.79 in10.0 miCalm0.00 inMostly Cloudy
11:12 PM78.8 °F77.0 °F94 %29.80 in10.0 miCalmScattered Clouds
11:54 PM79.0 °F77.0 °F94 %29.79 in10.0 miCalmScattered Clouds
Hourly data recorded from PGUM, located 10.70 miles away from Asatdas, Guam







STORIES FROM OUR PARTNERS